OPS 4682 DEB, 1399

Orbit data source: Space-Track

OPS 4682 DEB, 1399 is space debris in LEO originally from a launch on Sat, 03 Apr 1965 UTC launched from the Air Force Western Test Range (AFWTR). Debris objects in space refer to the collection of defunct objects orbiting the Earth. Examples of debris include non-operational satellites, rocket bodies, and fragments generated from explosions, collisions, or faulty payload assembly.

Loading next visibility...
Identifier
1399, 1965-027E
Orbit
LEO
Country
Flag of USUS
Related business
Manufacturer
Unknown
Mission
Spacecraft
Bus & Motor
Unknown
Mass
Unknown
Launch date (UTC)
1965-04-03 (61 years ago)
Launch vehicle
Unknown
Launch site
Air Force Western Test Range (AFWTR)
Object type
Payload
Rocket body
Debris
Shape & HBR
Unknown shape, 0.1 m
Radar Cross Section
Small (<0.1 m²)

Expand to show TLE details & history
Last TLE update: 1 day ago

TLE from 1 day ago
0 OPS 4682 DEB
1 01399U 65027E   25346.06634145  .00000037  00000-0  99516-4 0  9995
2 01399  90.2632  20.4490 0010201  71.0011 289.2216 12.99830864608799
Epoch: 2025-12-12T01:35Z
TLE epoch observation values (Epoch: 2025-12-12T01:35:31.901Z)
Latitude
0.00004°
Longitude
-84.44722°
Altitude
1,263.073 km
Speed
7.225 km/s
True Right ascension
01h 21m 47s
True Declination
0° 00' 00"
Sunlit
Object was in daylight at epoch
Visualization orbit readout
Latitude
Unknown
Longitude
Unknown
Altitude
Unknown
Speed
Unknown
Apparent Right ascension
Unknown
Apparent Declination
Unknown
Sunlit
N/A
Visualization observer readout
Local Sidereal Time
06:55:54
Azimuth
Unknown
Elevation
Unknown
Doppler factor
Unknown
Orbital elements
Apogee altitude
1,267.668 km
Perigee altitude
1,252.085 km
Semi-major axis
7,638.014 km
Eccentricity
0.00102
Inclination
90.2632°
RAAN
20.449°
Arg. of periapsis
71.0011°
True anomaly
289.11118°
Mean anomaly
289.2216°
Eccentric anomaly
289.16639°
Mean motion
3.25142 °/min
Orbital period
110.72 mins
BSTAR
0.000099516
Loading maneuver chart data...
Computing Atmospheric mass density...
Loading historical data...
Loading historical data...
Loading historical data...
Loading historical data...
Loading historical data...
Loading historical data...
Loading historical data...

Documentation

Showing up to 5 results
|